Location: Hodgeman County Ambulance
(38.0844°N, 99.8949°W)
Time: 14:55:20
(UTC+00:00)

Meteor PRIRODA - Pass Details

Date: 27 October 2020
Orbit: 491 x 509 km, 97.6° (Epoch: 03 December)

Event Time Altitude Azimuth Distance (km) Brightness Sun altitude
Rises 12:16:00 0° 5° (N) 2,584 7.2 -9.4°
Reaches altitude 10° 12:18:08 10° 359° (N) 1,700 6.2 -9.0°
Maximum altitude 12:21:37 45° 286° (WNW) 691 3.9 -8.3°
Drops below altitude 10° 12:25:07 10° 213° (SSW) 1,697 6.1 -7.7°
Sets 12:27:15 0° 207° (SSW) 2,579 7.1 -7.3°
